Orbital Elements at Epoch 2459200.5 (2020-Dec-17.0) TDB
Reference: JPL 14 (heliocentric ecliptic J2000)
Element | Value | Uncertainty (1-sigma) | Units |
e | .2027678633465137 | 4.7098e-08 | |
a | 2.628501706859919 | 1.5191e-08 | au |
q | 2.095526031957269 | 1.2561e-07 | au |
i | 5.052659437671849 | 7.0076e-06 | deg |
node | 6.795863839353121 | 5.6491e-05 | deg |
peri | 129.0007001687869 | 5.9405e-05 | deg |
M | 18.52469181314336 | 1.8606e-05 | deg |
tp | 2459120.404279447822 (2020-Sep-27.90427945) | 8.01e-05 | TDB |
period | 1556.541921972809 4.26 | 1.3493e-05 3.694e-08 | d yr |
n | .2312819172539375 | 2.0049e-09 | deg/d |
Q | 3.16147738176257 | 1.8271e-08 | au |
|
| | Orbit Determination Parameters
Additional Information
|